Weather History for KBHK - December, 2012

Change the Weather History Date:

Saturday, December 1, 2012

  Actual Average Record
Temperature  
Mean Temperature 42 °F -  
Max Temperature 57 °F 20 °F 62 °F (1998)
Min Temperature 28 °F 18 °F -13 °F (2005)
Degree Days  
Heating Degree Days 22    
Moisture  
Dew Point 29 °F    
Average Humidity 60    
Maximum Humidity 82    
Minimum Humidity 39    
Precipitation  
Precipitation 0.00 in - - ()
Sea Level Pressure  
Sea Level Pressure 29.76 in    
Wind  
Wind Speed 5 mph (SW)    
Max Wind Speed 15 mph    
Max Gust Speed 18 mph    
Visibility 10 miles    
Events      
Averages and records for this station are not official NWS values.
T = Trace of Precipitation, MM = Missing Value Source: NWS Daily Summary

Daily Weather History Graph

Daily Weather History Graph

Search for Another Location

Airport or City:

Trip Planner

Search our weather history database for the weather conditions in past years. The results will help you decide how hot, cold, wet, or windy it might be!

Date:

Astronomy

Dec. 01, 2012 Rise Set
Actual Time 7:20 AM MST 4:12 PM MST
Civil Twilight 6:46 AM MST 4:46 PM MST
Nautical Twilight 6:08 AM MST 5:23 PM MST
Astronomical Twilight 5:32 AM MST 6:00 PM MST
Moon 7:07 PM MST (12/1) 9:32 AM MST (12/1)
Length of Visible Light 10h 00m
Length of Day
8h 51m
Waning Gibbous, 91% of the Moon is Illuminated
Dec 1
Waning Gibbous
Dec 6
Last Quarter
Dec 13
New
Dec 19
First Quarter
Dec 28
Full

Hourly Weather History & Observations

Time (MST) Temp. Windchill Dew Point Humidity Pressure Visibility Wind Dir Wind Speed Gust Speed Precip Events Conditions
12:51 AM 28.0 °F - 23.0 °F 81% 29.69 in 10.0 mi Calm Calm - N/A   Clear
1:51 AM 28.9 °F 25.2 °F 23.0 °F 78% 29.71 in 10.0 mi East 3.5 mph - N/A   Clear
2:51 AM 30.9 °F - 25.0 °F 79% 29.73 in 10.0 mi Calm Calm - N/A   Clear
3:51 AM 32.0 °F - 26.1 °F 79% 29.73 in 10.0 mi Calm Calm - N/A   Clear
4:51 AM 30.9 °F - 26.1 °F 82% 29.76 in 10.0 mi Calm Calm - N/A   Partly Cloudy
5:51 AM 32.0 °F - 25.0 °F 75% 29.78 in 10.0 mi Calm Calm - N/A   Mostly Cloudy
6:51 AM 33.1 °F - 27.0 °F 78% 29.78 in 10.0 mi Calm Calm - N/A   Mostly Cloudy
7:51 AM 32.0 °F 28.7 °F 27.0 °F 82% 29.81 in 10.0 mi SW 3.5 mph - N/A   Overcast
8:51 AM 43.0 °F 38.2 °F 32.0 °F 65% 29.80 in 10.0 mi SSW 8.1 mph - N/A   Mostly Cloudy
9:51 AM 48.0 °F - 33.1 °F 56% 29.79 in 10.0 mi West 6.9 mph - N/A   Mostly Cloudy
10:51 AM 51.1 °F - 33.1 °F 50% 29.79 in 10.0 mi West 12.7 mph - N/A   Mostly Cloudy
11:51 AM 55.0 °F - 33.1 °F 43% 29.77 in 10.0 mi SW 10.4 mph 18.4 mph N/A   Overcast
12:51 PM 57.0 °F - 33.1 °F 40% 29.75 in 10.0 mi SW 12.7 mph - N/A   Clear
1:51 PM 57.0 °F - 32.0 °F 39% 29.74 in 10.0 mi WSW 8.1 mph - N/A   Clear
2:51 PM 55.9 °F - 32.0 °F 40% 29.74 in 10.0 mi WSW 9.2 mph - N/A   Clear
3:51 PM 50.0 °F - 30.9 °F 48% 29.76 in 10.0 mi SSW 6.9 mph - N/A   Clear
4:51 PM 43.0 °F 37.2 °F 30.0 °F 60% 29.77 in 10.0 mi SSW 10.4 mph - N/A   Clear
5:51 PM 45.0 °F 38.5 °F 30.0 °F 56% 29.76 in 10.0 mi SSW 13.8 mph - N/A   Clear
6:51 PM 44.1 °F 37.7 °F 30.0 °F 58% 29.77 in 10.0 mi SSW 12.7 mph - N/A   Clear
7:51 PM 46.9 °F - 28.9 °F 50% 29.77 in 10.0 mi SW 12.7 mph - N/A   Clear
8:51 PM 46.0 °F 40.2 °F 28.0 °F 50% 29.75 in 10.0 mi SSW 12.7 mph - N/A   Clear
9:51 PM 46.9 °F - 27.0 °F 46% 29.74 in 10.0 mi SW 15.0 mph - N/A   Clear
10:51 PM 44.1 °F 37.7 °F 26.1 °F 49% 29.74 in 10.0 mi SSW 12.7 mph - N/A   Clear